Погода Троицко-Печерск

Погода Троицко-Печерск : погода сейчас, прогноз погоды и архив. Всё, что Вы хотите узнать о погоде Троицко-Печерск!

Хотите узнать прогноз погоды Троицко-Печерск? Тогда Вам сюда: Погода Троицко-Печерск

Поиск расширенной информации на нашем сайте:

Другие новости

Новости СМИ2

Главная страница сайта

Новости сайта

03.07.2017

Напоминаем, что на нашем специализированном сайте Метеоцентр.Азия вы можете получить высокодетализированные автоматические прогнозы погоды по пунктам России, СНГ и мира в авиационном формате (включающие направление и скорость ветра, видимость, явления погоды, количество и форму облачности, нижнюю и верхнюю границу облачности).

Рекомендуем: Заказать где купить постельное белье.

Погода Троицко-Печерск - сегодня

Время (UTC), дата Ветер
(°,м/с) 
Видим.   Явления Облачность Т
(°С)
Тd
(°С)
f(%) Тe
(°С)
Pmin
(гПа)
dP
(гПа)
Po
(мм)
O2
(г/м3)
Тmin Tmax R s Состояние
почвы
21 20.10.17 300 (СЗ) 20000 м  {ливн. осадки}  8/0 средняя 
[Ac trans]
-1.3 -5.9 71 -3  1005.7  742  301           
00 21.10.17 280 (З) 20000 м  {ливн. осадки}  8/0 средняя 
[Ac trans]
-1.5 -5.7 73 -2  1005.4  -0.3  741  301           
03 21.10.17 270 (З) 20000 м    10/10 1320 м 
[Sc]
-1.5 -6.1 71 -3  1004.9  -0.6  741  301  -1.6    0.0  сухой снег
50-90% 
06 21.10.17 280 (З) 20000 м  слаб. крупа{ливн. осадки}  10/10 540 м кучево-дожд. 
[Cb cap]
-1.3 -4.5 79 -2  1004.5  -0.4  741  300  -2.1         
09 21.10.17 280 (З) 20000 м    9/9 570 м кучево-дожд. 
[Cb cap]
-0.3 -5.3 69 -1  1004  -0.4  740  299           
12 21.10.17 270 (З) 20000 м    10/10 500 м кучево-дожд. 
[Cb cap]
-0.6 -4.7 74 -1  1003.7  -0.3  740  299           
15 21.10.17 270 (З) 20000 м    10/5 300 м средняя 
[Sc diur, vesp|Ac As]
-0.9 -6 68 -2  1003.4  -0.3  740  300    +0.1  0.0     
18 21.10.17 270 (З) 10 км  слаб. ливневой снег  10/5 600 м кучево-дожд., средняя 
[Cb cap|Ac As]
-1.5 -5 77 -2  1003.2  -0.3  740  300           
21 21.10.17 270 (З) 20000 м  {ливн. осадки}  10/3 300 м кучево-дожд., средняя 
[Cb cap|Ac As]
-1.6 -5.3 76 -3  1003.4  0.2  740  300           
00 22.10.17 270 (З) 10 км  слаб. ливневой снег  10/10 800 м кучево-дожд. 
[Cb cap]
-1.5 -4.8 78 -1  1004.1  0.2  740  300           
03 22.10.17 260 (З) 20000 м  {ливн. осадки}  10/10 840 м 
[Sc diur, vesp]
-1.7 -5.1 78 -1  1004.7  0.6  741  301  -2.1    0.2  равномерный
сухой снег
100% 
06 22.10.17 280 (З) 20000 м  {ливн. осадки}  10/3 1000 м средняя 
[Sc diur, vesp|Ac As]
-1.4 -4.5 79 -2  1005.6  0.9  741  301           
09 22.10.17 270 (З) 20000 м  {ливн. осадки}  10/4 1000 м средняя 
[Sc|Ac und]
-0.1 -4.5 72 -1  1006.7  1.2  742  300           
12 22.10.17 280 (З) 20000 м  {ливн. осадки}  10/10 1200 м кучево-дожд. 
[Cb cap]
+0.1 -5.4 66 +1  1007.9  1.2  743  300           
15 22.10.17 290 (З) 20000 м    10/10 930 м кучево-дожд. 
[Cb cap]
-0.7 -4.9 73 1009.4  1.4  744  301    +0.3  0.0     
18 22.10.17 280 (З) 20000 м    10/10 1200 м 
[Sc]
-1.3 -4.6 78 -2  1010.7  1.2  745  302           
21 22.10.17 270 (З) 20000 м    10/10 960 м 
[Sc]
-1.8 -4.6 81 -1  1011.6  0.8  746  303           
00 23.10.17 280 (З) 20000 м    10/10 930 м 
[Sc]
-2.1 -4.6 83 -2  1012.5  0.9  747  304           
03 23.10.17 290 (З) 20000 м    10/10 600 м 
[Sc]
-2.8 -4.1 91 -2  1013.6  747  305  -2.8      сухой снег
50-90% 
06 23.10.17 280 (З) 20000 м    10/10 700 м 
[Sc]
-1.8 -4.3 83 -3  1014.5  0.9  748  304  -3.1         
09 23.10.17 280 (З) 20000 м    9/9 800 м 
[Sc]
-0.7 -5.6 69 -2  1015.1  0.7  749  303           
12 23.10.17 280 (З) 20000 м    10/5 600 м средняя 
[Sc|Ac As]
-1.4 -4.9 77 -1  1016.1  0.9  749  304           
15 23.10.17 290 (З) 10 км  слаб. ливневой снег  10/10 480 м кучево-дожд. 
[Cb cap]
-1.9 -4.5 82 -1  1016.9  0.8  750  305    -0.5  0.0     
18 23.10.17 310 (СЗ) 10 км  слаб. ливневой снег  10/10 450 м кучево-дожд. 
[Cb cap]
-2.6 -4 90 -2  1017.5  0.5  750  306           
21 23.10.17 330 (СЗ) 20000 м  {ливн. осадки}  10/10 540 м кучево-дожд. 
[Cb cap]
-2.9 -4.2 91 -2  1018.3  0.8  751  306           
Время (UTC), дата Ветер
(°,м/с) 
Видим.   Явления Облачность Т
(°С)
Тd
(°С)
f(%) Тe
(°С)
Pmin
(гПа)
dP
(гПа)
Po
(мм)
O2
(г/м3)
Тmin Tmax R s Состояние
почвы

Для получения пояснительной информации подведите курсор к названию столбца.

ПОГОДА Троицко-Печерск - архив

Всё, что Вы хотите узнать о погоде Троицко-Печерск - удобно и подробно!

Выберите нужную дату (начиная с 1 января 2015* года) и нажмите кнопку "Найти".
Будут отображены архивные сводки погоды по пункту Троицко-Печерск, начиная с указанной даты.


Отображать данные в формате CSV (для использования в таблицах Excel)


Внимание! Наш архив погоды предназначен исключительно для личного некоммерческого использования в познавательных целях. Если Вам необходимы официальные справки о состоянии погоды (для производственных, юридических, коммерческих и т.п. целей), обращайтесь в органы Росгидромета.

*Примечание: данная дата относится к архиву по метеостанциям СССР (Россия, СНГ, Балтия).
Архив по метеостанциям Зарубежной Европы и Азии (кроме Китая) хранится 10 дней, по другим регионам земного шара (Китай, Африка, Америка, Австралия, Океания) - 1 день.

Троицко-Печерск - район местоположения метеостанции


Название, широта, долгота, высота метеостанции:
Троицко-Печерск 62.7°ш. 56.2°д. 139 м над ур. моря [Российская Федерация]

Дополнительная информация

В oтличие oт бoльшинства пoгoдных сайтoв мы публикуем пoдрoбную метеoинфoрмацию в детальнoм прoфессиoнальнoм фoрмате.

Характеристики температуры и влажнoсти вoздуха измеряются на высoте 2 м в тени вдали oт зданий и деревьев.
Скoрoсть ветра измеряется на высoте 10 м (на урoвне рoста челoвека скoрoсть ветра ниже в 1.5-2 раза). Если метеoстанция нахoдится в гoрoде или в лесу, тo скoрoсть ветра занижена на 2-4 м/с пo сравнению с oткрытым местoм. Скoрoсть ветра над акватoриями крупных рек и oзёр, а также на вершинах хoлмoв на 2-5 м/с выше, чем в oбычных услoвиях.
Атмoсфернoе давление в разных тoчках местнoсти мoжет значительнo oтличаться oт давления на метеoстанции, в зависимoсти oт услoвий рельефа (при пoдъёме на 10 м давление пoнижается примернo на 1 мм рт.ст.).